When you browse on this site, cookies collect data to enhance your experience and personalize the content and advertising you see.
Visit our Privacy Policy to learn more. By continuing to use the site, you agree to this use of cookies and data.

Meteo pe oră la Dzierganka

Astăzi, 21 Septembrie, Luni

Timp Temperatura Precipitaţii Vânt Presiune Umiditate
00:00 +12°C° 0 mm 2 m/s 743 mmHg 80%
01:00 +12°C° 0 mm 2 m/s 743 mmHg 81%
02:00 +11°C° 0 mm 1 m/s 743 mmHg 82%
03:00 +11°C° 0 mm 1 m/s 742 mmHg 83%
04:00 +11°C° 0 mm 1 m/s 742 mmHg 84%
05:00 +12°C° 0 mm 1 m/s 742 mmHg 81%
06:00 +12°C° 0 mm 1 m/s 743 mmHg 78%
07:00 +12°C° 0 mm 0 m/s 743 mmHg 74%
08:00 +16°C° 0 mm 1 m/s 743 mmHg 67%
09:00 +19°C° 0 mm 1 m/s 743 mmHg 60%
10:00 +21°C° 0 mm 1 m/s 743 mmHg 53%
11:00 +22°C° 0 mm 1 m/s 743 mmHg 49%
12:00 +24°C° 0 mm 1 m/s 743 mmHg 45%
13:00 +23°C° 0 mm 0 m/s 743 mmHg 40%
14:00 +23°C° 0 mm 0 m/s 743 mmHg 42%
15:00 +23°C° 0 mm 0 m/s 742 mmHg 43%
16:00 +23°C° 0 mm 0 m/s 742 mmHg 44%
17:00 +23°C° 0 mm 1 m/s 742 mmHg 49%
18:00 +20°C° 0 mm 1 m/s 742 mmHg 53%
19:00 +18°C° 0 mm 1 m/s 742 mmHg 58%
20:00 +18°C° 0 mm 1 m/s 742 mmHg 59%
21:00 +16°C° 0 mm 1 m/s 742 mmHg 60%
22:00 +16°C° 0 mm 1 m/s 742 mmHg 61%
23:00 +15°C° 0 mm 1 m/s 742 mmHg 62%

Mâine, 22 Septembrie, Marţi

Timp Temperatura Precipitaţii Vânt Presiune Umiditate
00:00 +15°C° 0 mm 1 m/s 742 mmHg 62%
01:00 +15°C° 0 mm 1 m/s 742 mmHg 63%
02:00 +14°C° 0 mm 1 m/s 742 mmHg 64%
03:00 +14°C° 0 mm 1 m/s 741 mmHg 65%
04:00 +14°C° 0 mm 1 m/s 741 mmHg 66%
05:00 +14°C° 0 mm 2 m/s 741 mmHg 66%
06:00 +15°C° 0 mm 2 m/s 741 mmHg 65%
07:00 +16°C° 0 mm 2 m/s 741 mmHg 64%
08:00 +18°C° 0 mm 2 m/s 741 mmHg 58%
09:00 +20°C° 0 mm 2 m/s 741 mmHg 52%
10:00 +22°C° 0 mm 3 m/s 741 mmHg 46%
11:00 +24°C° 0 mm 3 m/s 741 mmHg 43%
12:00 +25°C° 0 mm 2 m/s 740 mmHg 40%
13:00 +26°C° 0 mm 2 m/s 740 mmHg 37%
14:00 +26°C° 0 mm 2 m/s 740 mmHg 39%
15:00 +26°C° 0 mm 2 m/s 739 mmHg 42%
16:00 +25°C° 0 mm 2 m/s 739 mmHg 44%
17:00 +24°C° 0 mm 2 m/s 739 mmHg 47%
18:00 +21°C° 0 mm 2 m/s 738 mmHg 50%
19:00 +19°C° 0 mm 2 m/s 738 mmHg 52%
20:00 +18°C° 0 mm 2 m/s 738 mmHg 55%
21:00 +18°C° 0 mm 2 m/s 738 mmHg 57%
22:00 +17°C° 0 mm 2 m/s 738 mmHg 60%
23:00 +18°C° 0 mm 1 m/s 738 mmHg 60%

Poimâine, 23 Septembrie, Miercuri

Timp Temperatura Precipitaţii Vânt Presiune Umiditate
00:00 +16°C° 0 mm 1 m/s 737 mmHg 61%
01:00 +16°C° 0 mm 1 m/s 737 mmHg 61%
02:00 +16°C° 0 mm 2 m/s 737 mmHg 62%
03:00 +15°C° 0 mm 2 m/s 737 mmHg 62%
04:00 +15°C° 0 mm 2 m/s 736 mmHg 62%
05:00 +16°C° 0 mm 2 m/s 736 mmHg 62%
06:00 +16°C° 0 mm 2 m/s 736 mmHg 61%
07:00 +17°C° 0 mm 2 m/s 736 mmHg 60%
08:00 +19°C° 0 mm 3 m/s 736 mmHg 55%
09:00 +22°C° 0 mm 3 m/s 736 mmHg 50%
10:00 +25°C° 0 mm 3 m/s 736 mmHg 44%
11:00 +26°C° 0 mm 3 m/s 736 mmHg 42%
12:00 +28°C° 0 mm 3 m/s 735 mmHg 39%
13:00 +29°C° 0 mm 3 m/s 735 mmHg 36%
14:00 +28°C° 0 mm 2 m/s 735 mmHg 40%
15:00 +28°C° 0 mm 2 m/s 735 mmHg 44%
16:00 +27°C° 0 mm 2 m/s 734 mmHg 47%
17:00 +25°C° 0 mm 2 m/s 734 mmHg 51%
18:00 +24°C° 0 mm 2 m/s 734 mmHg 55%
19:00 +21°C° 0 mm 2 m/s 735 mmHg 59%
20:00 +20°C° 0.2 mm 2 m/s 734 mmHg 64%
21:00 +20°C° 0.2 mm 1 m/s 734 mmHg 69%
22:00 +19°C° 0.2 mm 1 m/s 734 mmHg 73%
23:00 +19°C° 0.1 mm 1 m/s 734 mmHg 75%

24 Septembrie, Joi

Timp Temperatura Precipitaţii Vânt Presiune Umiditate
00:00 +19°C° 0.1 mm 1 m/s 734 mmHg 76%
01:00 +18°C° 0.1 mm 1 m/s 734 mmHg 77%
02:00 +18°C° 0 mm 1 m/s 734 mmHg 79%
03:00 +18°C° 0 mm 1 m/s 734 mmHg 80%
04:00 +18°C° 0 mm 1 m/s 734 mmHg 81%
05:00 +17°C° 0 mm 2 m/s 734 mmHg 81%
06:00 +18°C° 0 mm 2 m/s 735 mmHg 80%
07:00 +18°C° 0 mm 2 m/s 735 mmHg 80%
08:00 +20°C° 0 mm 2 m/s 735 mmHg 73%
09:00 +22°C° 0 mm 3 m/s 735 mmHg 66%
10:00 +24°C° 0 mm 3 m/s 736 mmHg 59%
11:00 +25°C° 0 mm 3 m/s 736 mmHg 58%
12:00 +25°C° 0 mm 3 m/s 736 mmHg 56%
13:00 +25°C° 0 mm 3 m/s 736 mmHg 55%
14:00 +25°C° 0 mm 3 m/s 736 mmHg 56%
15:00 +25°C° 0 mm 2 m/s 736 mmHg 57%
16:00 +25°C° 0 mm 2 m/s 736 mmHg 58%
17:00 +23°C° 0 mm 2 m/s 736 mmHg 63%
18:00 +22°C° 0 mm 1 m/s 736 mmHg 69%
19:00 +20°C° 0 mm 1 m/s 736 mmHg 74%
20:00 +20°C° 0 mm 1 m/s 736 mmHg 76%
21:00 +19°C° 0 mm 1 m/s 736 mmHg 78%
22:00 +19°C° 0 mm 1 m/s 736 mmHg 80%
23:00 +19°C° 0 mm 1 m/s 736 mmHg 81%

25 Septembrie, Vineri

Timp Temperatura Precipitaţii Vânt Presiune Umiditate
00:00 +18°C° 0 mm 1 m/s 736 mmHg 82%
01:00 +17°C° 0 mm 2 m/s 736 mmHg 84%
02:00 +17°C° 0 mm 2 m/s 735 mmHg 85%
03:00 +16°C° 0 mm 2 m/s 735 mmHg 87%
04:00 +16°C° 0 mm 2 m/s 734 mmHg 88%
05:00 +16°C° 0 mm 3 m/s 734 mmHg 87%
06:00 +17°C° 0 mm 3 m/s 733 mmHg 85%
07:00 +17°C° 0 mm 4 m/s 733 mmHg 83%
08:00 +19°C° 0 mm 4 m/s 733 mmHg 75%
09:00 +21°C° 0 mm 4 m/s 732 mmHg 66%
10:00 +23°C° 0 mm 5 m/s 732 mmHg 57%
11:00 +25°C° 0 mm 5 m/s 732 mmHg 55%
12:00 +26°C° 0 mm 6 m/s 731 mmHg 53%
13:00 +26°C° 0 mm 6 m/s 731 mmHg 50%
14:00 +25°C° 0.1 mm 5 m/s 730 mmHg 55%
15:00 +22°C° 0.1 mm 5 m/s 730 mmHg 60%
16:00 +21°C° 0.1 mm 5 m/s 730 mmHg 66%
17:00 +20°C° 0.1 mm 5 m/s 729 mmHg 69%
18:00 +20°C° 0.1 mm 5 m/s 729 mmHg 71%
19:00 +19°C° 0.1 mm 6 m/s 729 mmHg 74%
20:00 +17°C° 0.4 mm 6 m/s 729 mmHg 79%
21:00 +16°C° 0.4 mm 7 m/s 730 mmHg 83%
22:00 +14°C° 0.4 mm 7 m/s 730 mmHg 88%
23:00 +14°C° 0.8 mm 6 m/s 730 mmHg 87%

26 Septembrie, Sâmbătă

Timp Temperatura Precipitaţii Vânt Presiune Umiditate
00:00 +13°C° 0.8 mm 5 m/s 730 mmHg 87%
01:00 +12°C° 0.8 mm 5 m/s 730 mmHg 86%
02:00 +12°C° 0 mm 4 m/s 730 mmHg 86%
03:00 +12°C° 0 mm 4 m/s 730 mmHg 86%
04:00 +12°C° 0 mm 3 m/s 730 mmHg 86%
05:00 +12°C° 0 mm 3 m/s 730 mmHg 85%
06:00 +11°C° 0 mm 3 m/s 730 mmHg 83%
07:00 +11°C° 0 mm 3 m/s 730 mmHg 82%
08:00 +12°C° 0 mm 3 m/s 730 mmHg 81%
09:00 +12°C° 0 mm 3 m/s 730 mmHg 81%
10:00 +12°C° 0 mm 3 m/s 730 mmHg 80%
11:00 +12°C° 0.1 mm 3 m/s 730 mmHg 81%
12:00 +12°C° 0.1 mm 4 m/s 730 mmHg 83%
13:00 +12°C° 0.1 mm 4 m/s 730 mmHg 84%
14:00 +13°C° 0 mm 4 m/s 729 mmHg 84%
15:00 +13°C° 0 mm 5 m/s 729 mmHg 85%
16:00 +13°C° 0 mm 5 m/s 728 mmHg 85%
17:00 +14°C° 1.2 mm 6 m/s 727 mmHg 88%
18:00 +14°C° 1.2 mm 7 m/s 727 mmHg 90%
19:00 +13°C° 1.2 mm 8 m/s 726 mmHg 93%
20:00 +12°C° 0.4 mm 8 m/s 726 mmHg 91%
21:00 +10°C° 0.4 mm 8 m/s 726 mmHg 90%
22:00 +9°C° 0.4 mm 8 m/s 726 mmHg 88%
23:00 +7°C° 0 mm 8 m/s 727 mmHg 86%
Arată mai mult